| time (UTC) | temp F | wind direction | speed MPH | gust MPH | rain 1hr in | rain 24hr in | rain mn in | humidity % | barometer mb |
| 20260507151510 | 64 | 127 | 2.0 | 3.0 | 0.00 | 0.00 | 0.00 | 77 | 1016.7 |
| 20260507150007 | 63 | 76 | 0.0 | 2.0 | 0.00 | 0.00 | 0.00 | 79 | 1016.6 |
| 20260507144505 | 63 | 340 | 0.0 | 1.0 | 0.00 | 0.00 | 0.00 | 81 | 1016.5 |
| 20260507143016 | 62 | 286 | 1.0 | 1.0 | 0.00 | 0.00 | 0.00 | 79 | 1016.4 |
| 20260507141604 | 61 | 302 | 0.0 | 1.0 | 0.00 | 0.00 | 0.00 | 83 | 1016.3 |
| 20260507140058 | 60 | 302 | 0.0 | 2.0 | 0.00 | 0.00 | 0.00 | 85 | 1016.3 |
| 20260507134558 | 60 | 280 | 1.0 | 3.0 | 0.00 | 0.00 | 0.00 | 88 | 1016.1 |
| 20260507133058 | 59 | 274 | 1.0 | 6.0 | 0.00 | 0.00 | 0.00 | 89 | 1015.9 |
| 20260507131602 | 59 | 250 | 3.0 | 5.0 | 0.00 | 0.00 | 0.00 | 90 | 1015.9 |
| 20260507130057 | 59 | 238 | 2.0 | 5.0 | 0.00 | 0.00 | 0.00 | 91 | 1015.8 |
| 20260507124603 | 59 | 265 | 1.0 | 3.0 | 0.00 | 0.00 | 0.00 | 91 | 1015.7 |
| 20260507123055 | 59 | 261 | 1.0 | 3.0 | 0.00 | 0.00 | 0.00 | 91 | 1015.7 |
| 20260507121555 | 58 | 280 | 0.0 | 1.0 | 0.00 | 0.00 | 0.00 | 90 | 1015.7 |
| 20260507120053 | 59 | 269 | 0.0 | 1.0 | 0.00 | 0.00 | 0.00 | 90 | 1015.7 |
| 20260507114606 | 59 | 296 | 1.0 | 2.0 | 0.00 | 0.00 | 0.00 | 90 | 1015.7 |
| 20260507113119 | 59 | 250 | 1.0 | 3.0 | 0.00 | 0.00 | 0.00 | 90 | 1015.7 |
| 20260507111550 | 59 | 257 | 1.0 | 3.0 | 0.00 | 0.00 | 0.00 | 90 | 1015.8 |
| 20260507110048 | 59 | 234 | 2.0 | 3.0 | 0.00 | 0.00 | 0.00 | 89 | 1015.9 |
| 20260507104546 | 59 | 257 | 1.0 | 3.0 | 0.00 | 0.00 | 0.00 | 89 | 1016.1 |
| 20260507103050 | 59 | 252 | 1.0 | 3.0 | 0.00 | 0.00 | 0.00 | 88 | 1016.1 |
| 20260507101546 | 59 | 242 | 0.0 | 1.0 | 0.00 | 0.00 | 0.00 | 88 | 1016.2 |
| 20260507100040 | 59 | 267 | 0.0 | 1.0 | 0.00 | 0.00 | 0.00 | 87 | 1016.1 |
| 20260507094541 | 59 | 246 | 0.0 | 2.0 | 0.00 | 0.00 | 0.00 | 86 | 1016.2 |
| 20260507093037 | 60 | 279 | 0.0 | 0.0 | 0.00 | 0.00 | 0.00 | 85 | 1016.4 |
| 20260507091540 | 59 | 267 | 0.0 | 0.0 | 0.00 | 0.00 | 0.00 | 84 | 1016.5 |
| 20260507090033 | 59 | 292 | 0.0 | 1.0 | 0.00 | 0.00 | 0.00 | 85 | 1016.7 |
| 20260507084541 | 60 | 292 | 1.0 | 2.0 | 0.00 | 0.00 | 0.00 | 85 | 1016.8 |
| 20260507083031 | 59 | 262 | 0.0 | 1.0 | 0.00 | 0.00 | 0.00 | 86 | 1016.9 |
| 20260507081536 | 60 | 269 | 0.0 | 1.0 | 0.00 | 0.00 | 0.00 | 86 | 1016.9 |
| 20260507080029 | 60 | 211 | 0.0 | 2.0 | 0.00 | 0.00 | 0.00 | 85 | 1017.0 |
| 20260507074530 | 60 | 156 | 1.0 | 3.0 | 0.00 | 0.00 | 0.00 | 85 | 1017.0 |
| 20260507073027 | 61 | 175 | 0.0 | 5.0 | 0.00 | 0.00 | 0.00 | 82 | 1017.1 |
| 20260507071525 | 60 | 246 | 2.0 | 5.0 | 0.00 | 0.00 | 0.00 | 84 | 1017.2 |
| 20260507070021 | 60 | 252 | 0.0 | 1.0 | 0.00 | 0.00 | 0.00 | 87 | 1017.2 |
| 20260507064520 | 60 | 148 | 0.0 | 2.0 | 0.00 | 0.00 | 0.00 | 86 | 1017.2 |
| 20260507063024 | 60 | 149 | 0.0 | 2.0 | 0.00 | 0.00 | 0.00 | 86 | 1017.2 |
| 20260507061519 | 61 | 176 | 0.0 | 4.0 | 0.00 | 0.00 | 0.00 | 86 | 1017.3 |
| 20260507060018 | 61 | 257 | 2.0 | 4.0 | 0.00 | 0.00 | 0.00 | 83 | 1017.3 |
| 20260507054517 | 61 | 226 | 0.0 | 5.0 | 0.00 | 0.00 | 0.00 | 83 | 1017.3 |
| 20260507053017 | 61 | 263 | 2.0 | 4.0 | 0.00 | 0.00 | 0.00 | 79 | 1017.3 |
| 20260507051516 | 61 | 281 | 2.0 | 5.0 | 0.00 | 0.00 | 0.00 | 84 | 1017.3 |
| 20260507050024 | 61 | 214 | 2.0 | 8.0 | 0.00 | 0.00 | 0.00 | 86 | 1017.2 |
| 20260507044515 | 61 | 246 | 4.0 | 8.0 | 0.00 | 0.00 | 0.00 | 85 | 1017.2 |
| 20260507043022 | 61 | 258 | 5.0 | 8.0 | 0.00 | 0.00 | 0.00 | 84 | 1017.2 |
| 20260507041513 | 61 | 240 | 4.0 | 11.0 | 0.00 | 0.00 | 0.00 | 85 | 1017.1 |
| 20260507040013 | 61 | 254 | 6.0 | 11.0 | 0.00 | 0.00 | 0.00 | 85 | 1016.9 |
| 20260507034520 | 61 | 261 | 5.0 | 10.0 | 0.00 | 0.00 | 0.00 | 85 | 1016.7 |
| 20260507033015 | 62 | 244 | 4.0 | 9.0 | 0.00 | 0.00 | 0.00 | 83 | 1016.5 |
| 20260507031510 | 62 | 221 | 6.0 | 10.0 | 0.00 | 0.00 | 0.00 | 82 | 1016.3 |
| 20260507030010 | 62 | 254 | 7.0 | 12.0 | 0.00 | 0.00 | 0.00 | 82 | 1016.2 |
| 20260507024514 | 63 | 214 | 5.0 | 10.0 | 0.00 | 0.00 | 0.00 | 77 | 1016.2 |
| 20260507023009 | 63 | 264 | 7.0 | 14.0 | 0.00 | 0.00 | 0.00 | 73 | 1015.9 |
| 20260507021510 | 63 | 242 | 7.0 | 13.0 | 0.00 | 0.00 | 0.00 | 80 | 1015.8 |
| 20260507020009 | 63 | 256 | 10.0 | 16.0 | 0.00 | 0.00 | 0.00 | 78 | 1015.7 |
| 20260507014507 | 63 | 272 | 13.0 | 17.0 | 0.00 | 0.00 | 0.00 | 79 | 1015.6 |
| 20260507013008 | 63 | 258 | 11.0 | 19.0 | 0.00 | 0.00 | 0.00 | 77 | 1015.5 |
| 20260507011511 | 63 | 245 | 9.0 | 16.0 | 0.00 | 0.00 | 0.00 | 78 | 1015.4 |
| 20260507010005 | 64 | 251 | 11.0 | 18.0 | 0.00 | 0.00 | 0.00 | 78 | 1015.3 |
| 20260507004504 | 64 | 247 | 13.0 | 18.0 | 0.00 | 0.00 | 0.00 | 78 | 1015.3 |
| 20260507003004 | 64 | 262 | 12.0 | 20.0 | 0.00 | 0.00 | 0.00 | 80 | 1015.4 |
| 20260507001507 | 64 | 240 | 12.0 | 18.0 | 0.00 | 0.00 | 0.00 | 79 | 1015.3 |
| 20260507000002 | 64 | 263 | 9.0 | 20.0 | 0.00 | 0.00 | 0.00 | 79 | 1015.2 |
| 20260506234603 | 64 | 244 | 13.0 | 19.0 | 0.00 | 0.00 | 0.00 | 79 | 1015.3 |
| 20260506233101 | 64 | 264 | 12.0 | 19.0 | 0.00 | 0.00 | 0.00 | 77 | 1015.3 |
| 20260506231605 | 64 | 246 | 13.0 | 19.0 | 0.00 | 0.00 | 0.00 | 77 | 1015.5 |
| 20260506230104 | 64 | 238 | 11.0 | 18.0 | 0.00 | 0.00 | 0.00 | 77 | 1015.7 |
| 20260506224550 | 64 | 247 | 12.0 | 17.0 | 0.00 | 0.00 | 0.00 | 76 | 1015.9 |
| 20260506223048 | 64 | 225 | 10.0 | 17.0 | 0.00 | 0.00 | 0.00 | 76 | 1016.1 |
| 20260506221603 | 65 | 265 | 7.0 | 13.0 | 0.00 | 0.00 | 0.00 | 75 | 1016.4 |
| 20260506220043 | 65 | 250 | 6.0 | 14.0 | 0.00 | 0.00 | 0.00 | 77 | 1016.6 |
| 20260506214541 | 65 | 243 | 10.0 | 13.0 | 0.00 | 0.00 | 0.00 | 74 | 1016.7 |
| 20260506213038 | 65 | 248 | 9.0 | 13.0 | 0.00 | 0.00 | 0.00 | 74 | 1016.9 |
| 20260506211635 | 65 | 188 | 6.0 | 10.0 | 0.00 | 0.00 | 0.00 | 74 | 1017.1 |
| 20260506210048 | 65 | 223 | 6.0 | 10.0 | 0.00 | 0.00 | 0.00 | 69 | 1017.3 |
| 20260506204533 | 66 | 205 | 4.0 | 7.0 | 0.00 | 0.00 | 0.00 | 63 | 1017.4 |
| 20260506203036 | 65 | 190 | 7.0 | 9.0 | 0.00 | 0.00 | 0.00 | 75 | 1017.5 |
| 20260506201530 | 65 | 144 | 5.0 | 8.0 | 0.00 | 0.00 | 0.00 | 76 | 1017.7 |
| 20260506200032 | 65 | 175 | 6.0 | 8.0 | 0.00 | 0.00 | 0.00 | 75 | 1017.8 |
| 20260506194529 | 66 | 155 | 4.0 | 9.0 | 0.00 | 0.00 | 0.00 | 75 | 1018.0 |
| 20260506193126 | 65 | 150 | 5.0 | 8.0 | 0.00 | 0.00 | 0.00 | 78 | 1018.1 |
| 20260506191527 | 64 | 148 | 6.0 | 9.0 | 0.00 | 0.00 | 0.00 | 80 | 1018.3 |
| 20260506190029 | 64 | 132 | 7.0 | 10.0 | 0.00 | 0.00 | 0.00 | 77 | 1018.3 |
| 20260506184534 | 65 | 121 | 3.0 | 8.0 | 0.00 | 0.00 | 0.00 | 77 | 1018.5 |
| 20260506183023 | 65 | 125 | 4.0 | 9.0 | 0.00 | 0.00 | 0.00 | 76 | 1018.5 |
| 20260506181534 | 64 | 129 | 4.0 | 8.0 | 0.00 | 0.00 | 0.00 | 78 | 1018.6 |
| 20260506180020 | 64 | 101 | 4.0 | 8.0 | 0.00 | 0.00 | 0.00 | 77 | 1018.6 |
| 20260506174519 | 64 | 98 | 3.0 | 7.0 | 0.00 | 0.00 | 0.00 | 76 | 1018.6 |
| 20260506173019 | 64 | 102 | 4.0 | 7.0 | 0.00 | 0.00 | 0.00 | 74 | 1018.5 |
| 20260506171518 | 63 | 63 | 4.0 | 6.0 | 0.00 | 0.00 | 0.00 | 76 | 1018.5 |
| 20260506170025 | 64 | 90 | 4.0 | 5.0 | 0.00 | 0.00 | 0.00 | 74 | 1018.5 |
| 20260506164537 | 64 | 88 | 2.0 | 6.0 | 0.00 | 0.00 | 0.00 | 74 | 1018.5 |
| 20260506163014 | 65 | 126 | 1.0 | 3.0 | 0.00 | 0.00 | 0.00 | 73 | 1018.4 |
| 20260506161511 | 64 | 104 | 1.0 | 6.0 | 0.00 | 0.00 | 0.00 | 74 | 1018.3 |
| 20260506160009 | 64 | 114 | 2.0 | 6.0 | 0.00 | 0.00 | 0.00 | 74 | 1018.4 |
| 20260506154507 | 62 | 71 | 3.0 | 5.0 | 0.00 | 0.00 | 0.00 | 76 | 1018.4 |
| 20260506153005 | 62 | 90 | 3.0 | 5.0 | 0.00 | 0.00 | 0.00 | 77 | 1018.4 |